Погода в Ангоре

Узбекистан     37°27′46″N   67°08′58″E
темп.,
°C
ветер,
м/с
пор.,
м/с
влажн.,
%
обл.,
%
осадки,
мм/ч
давл.,
гПа
погр.,
м
27 февраля, сб
сб2723:00+1з12310 0.0 103042
02:000зюз11340 0.0 102922
05:00−1зюз22350 0.0 102927
08:000юз223263 0.0 1030124
11:00+4ююв112677 0.0 1031537
14:00+7в122615 0.0 10291041
17:00+8в23268 0.0 10281091
20:00+6св22340 0.0 102932
28 февраля, вс
вс2823:00+5св46400 0.0 1027105
02:00+4св46410 0.0 1024115
05:00+4св34490 0.0 102270
08:00+4св34470 0.0 102182
11:00+11всв45280 0.0 1020526
14:00+15всв34180 0.0 10171007
17:00+16в33170 0.0 1017986
20:00+11юв23290 0.0 101823
1 марта, пн
пн123:00+8в11360 0.0 101822
02:00+9св23300 0.0 101822
05:00+8св34331 0.0 101829
08:00+8св343484 0.0 101944
11:00+16всв442045 0.0 1019429
14:00+19всв34140 0.0 10181054
17:00+20в22140 0.0 10171077
20:00+14ююв232723 0.0 101823
2 марта, вт
вт223:00+11в113444 0.0 101823
02:00+12св342642 0.0 101923
05:00+11св342971 0.0 101748
08:00+12св3328100 0.0 101841
11:00+17ссв3318100 0.0 1019262
14:00+20юз3215100 0.0 1018667
17:00+19зюз3417100 0.0 1018753
20:00+16ююв2325100 0.0 102039
3 марта, ср
ср323:00+14ююз123995 0.0 102023
02:00+13в123899 0.0 101925
05:00+11ссв234170 0.0 101828
08:00+11всв224656 0.0 101954
11:00+17вюв222954 0.0 1019579
14:00+19ююв22271 0.0 10171183
17:00+19ююв22270 0.0 10151372
20:00+16ююв233649 0.0 101528